Time,TemperatureF,DewpointF,PressureIn,WindDirection,WindDirectionDegrees,WindSpeedMPH,WindSpeedGustMPH,Humidity,HourlyPrecipIn,Conditions,Clouds,dailyrainin,SoftwareType,DateUTC
2013-10-30 00:02:00,30.6,23.6,29.92,South,180,7.6,12.5,75,0.00,,,0.00,WUHU216HW,2013-10-30 06:02:00,
2013-10-30 00:07:00,30.6,23.2,29.92,SSE,158,10.1,12.8,74,0.00,,,0.00,WUHU216HW,2013-10-30 06:07:00,
2013-10-30 00:12:00,30.6,23.6,29.92,SSW,203,10.1,12.8,75,0.00,,,0.00,WUHU216HW,2013-10-30 06:12:00,
2013-10-30 00:17:00,30.4,22.8,29.92,SSW,203,7.8,10.3,73,0.00,,,0.00,WUHU216HW,2013-10-30 06:17:00,
2013-10-30 00:22:00,30.4,22.8,29.92,SE,135,13.0,13.0,73,0.00,,,0.00,WUHU216HW,2013-10-30 06:22:00,
2013-10-30 00:27:00,30.4,22.8,29.92,SSW,203,5.1,13.0,73,0.00,,,0.00,WUHU216HW,2013-10-30 06:27:00,
2013-10-30 00:32:00,30.2,22.6,29.92,South,180,7.8,12.8,73,0.00,,,0.00,WUHU216HW,2013-10-30 06:32:00,
2013-10-30 00:37:00,30.1,22.4,29.92,SSW,203,6.0,8.9,73,0.00,,,0.00,WUHU216HW,2013-10-30 06:37:00,
2013-10-30 00:42:00,29.9,22.0,29.92,SSW,203,6.3,8.9,72,0.00,,,0.00,WUHU216HW,2013-10-30 06:42:00,
2013-10-30 00:47:00,29.9,22.0,29.92,South,180,8.1,10.3,72,0.00,,,0.00,WUHU216HW,2013-10-30 06:47:00,
2013-10-30 00:52:00,29.7,21.4,29.92,South,180,5.4,10.3,71,0.00,,,0.00,WUHU216HW,2013-10-30 06:52:00,
2013-10-30 00:57:00,29.5,21.2,29.92,South,180,4.3,11.9,71,0.00,,,0.00,WUHU216HW,2013-10-30 06:57:00,
2013-10-30 01:02:00,29.3,20.8,29.92,SW,225,5.4,11.9,70,0.00,,,0.00,WUHU216HW,2013-10-30 07:02:00,
2013-10-30 01:07:00,29.2,20.6,29.92,South,180,1.1,9.6,70,0.00,,,0.00,WUHU216HW,2013-10-30 07:07:00,
2013-10-30 01:12:00,28.6,20.2,29.92,SSE,158,4.0,5.4,70,0.00,,,0.00,WUHU216HW,2013-10-30 07:12:00,
2013-10-30 01:17:00,28.1,19.6,29.91,SE,135,2.5,4.0,70,0.00,,,0.00,WUHU216HW,2013-10-30 07:17:00,
2013-10-30 01:22:00,27.9,19.7,29.91,SSE,158,6.0,6.0,71,0.00,,,0.00,WUHU216HW,2013-10-30 07:22:00,
2013-10-30 01:27:00,27.7,19.5,29.91,ESE,113,5.4,6.0,71,0.00,,,0.00,WUHU216HW,2013-10-30 07:27:00,
2013-10-30 01:32:00,27.7,19.3,29.91,SE,135,5.4,5.8,70,0.00,,,0.00,WUHU216HW,2013-10-30 07:32:00,
2013-10-30 01:37:00,27.7,19.3,29.91,SSE,158,6.3,7.8,70,0.00,,,0.00,WUHU216HW,2013-10-30 07:37:00,
2013-10-30 01:42:00,27.7,18.2,29.91,ESE,113,7.6,7.8,67,0.00,,,0.00,WUHU216HW,2013-10-30 07:42:00,
2013-10-30 01:47:00,27.9,18.4,29.91,SSE,158,4.7,8.5,67,0.00,,,0.00,WUHU216HW,2013-10-30 07:47:00,
2013-10-30 01:52:00,27.7,18.5,29.91,SE,135,8.5,8.5,68,0.00,,,0.00,WUHU216HW,2013-10-30 07:52:00,
2013-10-30 01:57:00,27.5,18.7,29.92,ESE,113,3.8,8.5,69,0.00,,,0.00,WUHU216HW,2013-10-30 07:57:00,
2013-10-30 02:02:00,27.4,18.5,29.92,SE,135,8.3,8.3,69,0.00,,,0.00,WUHU216HW,2013-10-30 08:02:00,
2013-10-30 02:07:00,27.0,18.5,29.92,SE,135,4.0,8.3,70,0.00,,,0.00,WUHU216HW,2013-10-30 08:07:00,
2013-10-30 02:12:00,27.0,18.5,29.92,SE,135,6.0,6.0,70,0.00,,,0.00,WUHU216HW,2013-10-30 08:12:00,
2013-10-30 02:17:00,26.8,18.0,29.92,South,180,7.6,10.5,69,0.00,,,0.00,WUHU216HW,2013-10-30 08:17:00,
2013-10-30 02:22:00,27.0,18.2,29.92,SSE,158,6.9,10.5,69,0.00,,,0.00,WUHU216HW,2013-10-30 08:22:00,
2013-10-30 02:27:00,27.0,18.2,29.92,ESE,113,3.8,8.1,69,0.00,,,0.00,WUHU216HW,2013-10-30 08:27:00,
2013-10-30 02:32:00,26.6,17.8,29.93,SSE,158,4.0,8.1,69,0.00,,,0.00,WUHU216HW,2013-10-30 08:32:00,
2013-10-30 02:37:00,26.3,17.8,29.92,ESE,113,3.1,6.3,70,0.00,,,0.00,WUHU216HW,2013-10-30 08:37:00,
2013-10-30 02:42:00,26.1,17.6,29.92,ESE,113,2.7,4.9,70,0.00,,,0.00,WUHU216HW,2013-10-30 08:42:00,
2013-10-30 02:47:00,25.7,17.3,29.92,SSW,203,1.1,4.9,70,0.00,,,0.00,WUHU216HW,2013-10-30 08:47:00,
2013-10-30 02:52:00,25.6,17.5,29.92,SSW,203,3.1,3.4,71,0.00,,,0.00,WUHU216HW,2013-10-30 08:52:00,
2013-10-30 02:57:00,25.2,17.1,29.92,SSW,203,0.4,3.1,71,0.00,,,0.00,WUHU216HW,2013-10-30 08:57:00,
2013-10-30 03:02:00,24.8,16.0,29.92,SSE,158,1.1,2.2,69,0.00,,,0.00,WUHU216HW,2013-10-30 09:02:00,
2013-10-30 03:07:00,24.1,15.8,29.92,ESE,113,2.5,2.5,70,0.00,,,0.00,WUHU216HW,2013-10-30 09:07:00,
2013-10-30 03:12:00,23.4,15.4,29.92,SSW,203,4.3,4.3,71,0.00,,,0.00,WUHU216HW,2013-10-30 09:12:00,
2013-10-30 03:17:00,22.7,15.0,29.92,NE,45,0.4,4.3,72,0.00,,,0.00,WUHU216HW,2013-10-30 09:17:00,
2013-10-30 03:22:00,21.6,14.0,29.93,North,0,0.9,2.9,72,0.00,,,0.00,WUHU216HW,2013-10-30 09:22:00,
2013-10-30 03:27:00,21.1,13.4,29.93,NNE,23,1.1,2.9,72,0.00,,,0.00,WUHU216HW,2013-10-30 09:27:00,
2013-10-30 03:32:00,20.7,13.3,29.93,WNW,293,0.4,2.2,73,0.00,,,0.00,WUHU216HW,2013-10-30 09:32:00,
2013-10-30 03:37:00,20.5,13.1,29.93,WSW,248,0.9,2.2,73,0.00,,,0.00,WUHU216HW,2013-10-30 09:37:00,
2013-10-30 03:42:00,20.2,12.8,29.93,SE,135,0.7,2.2,73,0.00,,,0.00,WUHU216HW,2013-10-30 09:42:00,
2013-10-30 03:47:00,19.6,12.2,29.93,SSE,158,3.6,3.6,73,0.00,,,0.00,WUHU216HW,2013-10-30 09:47:00,
2013-10-30 03:52:00,18.7,11.4,29.93,SSE,158,2.5,4.5,73,0.00,,,0.00,WUHU216HW,2013-10-30 09:52:00,
2013-10-30 03:57:00,18.4,11.1,29.93,SSW,203,0.7,4.5,73,0.00,,,0.00,WUHU216HW,2013-10-30 09:57:00,
2013-10-30 04:02:00,18.5,11.5,29.93,SSE,158,4.0,4.7,74,0.00,,,0.00,WUHU216HW,2013-10-30 10:02:00,
2013-10-30 04:07:00,18.9,11.9,29.93,East,90,0.9,4.7,74,0.00,,,0.00,WUHU216HW,2013-10-30 10:07:00,
2013-10-30 04:12:00,18.5,11.9,29.93,NNE,23,1.1,4.7,75,0.00,,,0.00,WUHU216HW,2013-10-30 10:12:00,
2013-10-30 04:17:00,18.0,11.1,29.93,SE,135,0.4,4.7,74,0.00,,,0.00,WUHU216HW,2013-10-30 10:17:00,
2013-10-30 04:22:00,17.6,10.7,29.93,WNW,293,0.4,1.8,74,0.00,,,0.00,WUHU216HW,2013-10-30 10:22:00,
2013-10-30 04:27:00,17.3,10.4,29.93,North,0,0.2,2.0,74,0.00,,,0.00,WUHU216HW,2013-10-30 10:27:00,
2013-10-30 04:32:00,16.6,10.3,29.93,North,0,3.8,4.9,76,0.00,,,0.00,WUHU216HW,2013-10-30 10:32:00,
2013-10-30 04:37:00,16.2,10.5,29.94,NNE,23,1.6,4.9,78,0.00,,,0.00,WUHU216HW,2013-10-30 10:37:00,
2013-10-30 04:42:00,15.8,9.9,29.94,NNE,23,0.2,2.5,77,0.00,,,0.00,WUHU216HW,2013-10-30 10:42:00,
2013-10-30 04:47:00,15.7,10.0,29.94,NNE,23,1.1,2.5,78,0.00,,,0.00,WUHU216HW,2013-10-30 10:47:00,
2013-10-30 04:52:00,15.7,9.7,29.94,SSE,158,0.4,1.3,77,0.00,,,0.00,WUHU216HW,2013-10-30 10:52:00,
2013-10-30 04:57:00,15.7,9.7,29.94,SE,135,0.0,0.4,77,0.00,,,0.00,WUHU216HW,2013-10-30 10:57:00,
2013-10-30 05:02:00,15.5,9.3,29.94,SE,135,0.0,0.4,76,0.00,,,0.00,WUHU216HW,2013-10-30 11:02:00,
2013-10-30 05:07:00,15.3,9.1,29.94,NNE,23,0.0,0.0,76,0.00,,,0.00,WUHU216HW,2013-10-30 11:07:00,
2013-10-30 05:12:00,15.1,8.9,29.94,East,90,0.9,0.9,76,0.00,,,0.00,WUHU216HW,2013-10-30 11:12:00,
2013-10-30 05:17:00,14.8,8.6,29.94,East,90,0.0,0.9,76,0.00,,,0.00,WUHU216HW,2013-10-30 11:17:00,
2013-10-30 05:22:00,14.8,8.6,29.94,SSE,158,0.0,0.4,76,0.00,,,0.00,WUHU216HW,2013-10-30 11:22:00,
2013-10-30 05:27:00,14.6,8.4,29.95,SW,225,0.0,0.4,76,0.00,,,0.00,WUHU216HW,2013-10-30 11:27:00,
2013-10-30 05:32:00,14.2,8.0,29.95,SSE,158,0.2,1.1,76,0.00,,,0.00,WUHU216HW,2013-10-30 11:32:00,
2013-10-30 05:37:00,14.0,7.8,29.95,SE,135,0.0,1.1,76,0.00,,,0.00,WUHU216HW,2013-10-30 11:37:00,
2013-10-30 05:42:00,14.0,7.8,29.95,SSW,203,0.4,0.4,76,0.00,,,0.00,WUHU216HW,2013-10-30 11:42:00,
2013-10-30 05:47:00,13.7,7.5,29.95,SSE,158,1.3,1.3,76,0.00,,,0.00,WUHU216HW,2013-10-30 11:47:00,
2013-10-30 05:52:00,13.1,6.9,29.95,SE,135,0.4,1.8,76,0.00,,,0.00,WUHU216HW,2013-10-30 11:52:00,
2013-10-30 05:57:00,13.1,6.9,29.95,SSE,158,0.2,1.8,76,0.00,,,0.00,WUHU216HW,2013-10-30 11:57:00,
2013-10-30 06:02:00,13.1,7.2,29.95,South,180,0.4,0.4,77,0.00,,,0.00,WUHU216HW,2013-10-30 12:02:00,
2013-10-30 06:07:00,13.1,7.2,29.95,SW,225,0.0,0.4,77,0.00,,,0.00,WUHU216HW,2013-10-30 12:07:00,
2013-10-30 06:12:00,13.0,7.0,29.95,East,90,0.0,0.9,77,0.00,,,0.00,WUHU216HW,2013-10-30 12:12:00,
2013-10-30 06:17:00,13.0,7.0,29.95,SSE,158,0.0,0.9,77,0.00,,,0.00,WUHU216HW,2013-10-30 12:17:00,
2013-10-30 06:22:00,13.0,7.0,29.95,South,180,0.4,0.4,77,0.00,,,0.00,WUHU216HW,2013-10-30 12:22:00,
2013-10-30 06:27:00,13.0,7.0,29.95,SE,135,0.4,0.4,77,0.00,,,0.00,WUHU216HW,2013-10-30 12:27:00,
2013-10-30 06:32:00,13.0,7.0,29.95,SE,135,0.0,0.4,77,0.00,,,0.00,WUHU216HW,2013-10-30 12:32:00,
2013-10-30 06:37:00,12.8,6.8,29.95,SW,225,0.0,0.4,77,0.00,,,0.00,WUHU216HW,2013-10-30 12:37:00,
2013-10-30 06:42:00,12.6,6.7,29.95,SSE,158,0.0,0.0,77,0.00,,,0.00,WUHU216HW,2013-10-30 12:42:00,
2013-10-30 06:47:00,12.2,6.3,29.95,SSE,158,0.0,0.0,77,0.00,,,0.00,WUHU216HW,2013-10-30 12:47:00,
2013-10-30 06:52:00,11.9,6.3,29.95,ESE,113,0.4,0.4,78,0.00,,,0.00,WUHU216HW,2013-10-30 12:52:00,
2013-10-30 06:58:00,11.7,6.1,29.95,SSW,203,0.4,0.9,78,0.00,,,0.00,WUHU216HW,2013-10-30 12:58:00,
2013-10-30 07:03:00,11.5,6.0,29.95,SSW,203,0.7,0.9,78,0.00,,,0.00,WUHU216HW,2013-10-30 13:03:00,
2013-10-30 07:08:00,11.5,6.0,29.95,South,180,0.4,0.7,78,0.00,,,0.00,WUHU216HW,2013-10-30 13:08:00,
2013-10-30 07:13:00,11.3,5.8,29.95,ESE,113,0.0,0.4,78,0.00,,,0.00,WUHU216HW,2013-10-30 13:13:00,
2013-10-30 07:18:00,11.3,5.8,29.95,SE,135,0.0,0.0,78,0.00,,,0.00,WUHU216HW,2013-10-30 13:18:00,
2013-10-30 07:23:00,11.2,5.6,29.96,SSW,203,0.0,0.4,78,0.00,,,0.00,WUHU216HW,2013-10-30 13:23:00,
2013-10-30 07:28:00,10.8,5.2,29.95,SSE,158,0.0,0.4,78,0.00,,,0.00,WUHU216HW,2013-10-30 13:28:00,
2013-10-30 07:33:00,10.4,4.9,29.96,South,180,0.7,1.1,78,0.00,,,0.00,WUHU216HW,2013-10-30 13:33:00,
2013-10-30 07:38:00,10.4,4.9,29.96,SSE,158,0.2,1.1,78,0.00,,,0.00,WUHU216HW,2013-10-30 13:38:00,
2013-10-30 07:43:00,10.4,4.9,29.96,SSW,203,0.2,0.9,78,0.00,,,0.00,WUHU216HW,2013-10-30 13:43:00,
2013-10-30 07:48:00,10.3,4.7,29.95,SSE,158,0.2,0.9,78,0.00,,,0.00,WUHU216HW,2013-10-30 13:48:00,
2013-10-30 07:53:00,10.1,4.5,29.96,South,180,1.1,1.8,78,0.00,,,0.00,WUHU216HW,2013-10-30 13:53:00,
2013-10-30 07:58:00,9.9,4.3,29.96,SSW,203,0.4,1.8,78,0.00,,,0.00,WUHU216HW,2013-10-30 13:58:00,
2013-10-30 08:03:00,9.9,4.3,29.96,SE,135,0.2,1.3,78,0.00,,,0.00,WUHU216HW,2013-10-30 14:03:00,
2013-10-30 08:08:00,9.9,4.3,29.96,SSW,203,0.0,0.4,78,0.00,,,0.00,WUHU216HW,2013-10-30 14:08:00,
2013-10-30 08:13:00,10.1,4.5,29.96,East,90,0.4,0.9,78,0.00,,,0.00,WUHU216HW,2013-10-30 14:13:00,
2013-10-30 08:18:00,10.1,4.5,29.96,NNE,23,0.7,0.9,78,0.00,,,0.00,WUHU216HW,2013-10-30 14:18:00,
2013-10-30 08:23:00,10.1,4.8,29.96,SSW,203,0.2,0.7,79,0.00,,,0.00,WUHU216HW,2013-10-30 14:23:00,
2013-10-30 08:28:00,10.4,5.1,29.96,ESE,113,0.0,0.7,79,0.00,,,0.00,WUHU216HW,2013-10-30 14:28:00,
2013-10-30 08:33:00,10.6,5.6,29.96,ESE,113,0.0,0.0,80,0.00,,,0.00,WUHU216HW,2013-10-30 14:33:00,
2013-10-30 08:38:00,11.0,5.9,29.96,South,180,0.2,0.2,80,0.00,,,0.00,WUHU216HW,2013-10-30 14:38:00,
2013-10-30 08:43:00,11.2,6.1,29.96,South,180,0.4,0.4,80,0.00,,,0.00,WUHU216HW,2013-10-30 14:43:00,
2013-10-30 08:48:00,11.5,6.5,29.96,SSW,203,2.0,2.2,80,0.00,,,0.00,WUHU216HW,2013-10-30 14:48:00,
2013-10-30 08:53:00,12.1,7.3,29.96,SW,225,1.8,2.2,81,0.00,,,0.00,WUHU216HW,2013-10-30 14:53:00,
2013-10-30 08:58:00,12.6,7.8,29.96,SW,225,3.4,5.1,81,0.00,,,0.00,WUHU216HW,2013-10-30 14:58:00,
2013-10-30 09:03:00,13.7,8.9,29.96,SW,225,4.0,5.4,81,0.00,,,0.00,WUHU216HW,2013-10-30 15:03:00,
2013-10-30 09:08:00,14.8,10.3,29.96,SW,225,3.4,5.4,82,0.00,,,0.00,WUHU216HW,2013-10-30 15:08:00,
2013-10-30 09:13:00,16.4,12.1,29.96,East,90,1.1,4.7,83,0.00,,,0.00,WUHU216HW,2013-10-30 15:13:00,
2013-10-30 09:18:00,17.6,12.7,29.96,ESE,113,0.4,1.8,81,0.00,,,0.00,WUHU216HW,2013-10-30 15:18:00,
2013-10-30 09:23:00,18.9,14.2,29.96,SSW,203,1.3,2.0,82,0.00,,,0.00,WUHU216HW,2013-10-30 15:23:00,
2013-10-30 09:28:00,20.2,14.9,29.96,SW,225,1.8,2.5,80,0.00,,,0.00,WUHU216HW,2013-10-30 15:28:00,
2013-10-30 09:33:00,21.4,15.3,29.96,East,90,0.0,2.5,77,0.00,,,0.00,WUHU216HW,2013-10-30 15:33:00,
2013-10-30 09:38:00,22.1,16.0,29.96,East,90,0.0,0.4,77,0.00,,,0.00,WUHU216HW,2013-10-30 15:38:00,
2013-10-30 09:43:00,23.0,16.6,29.96,ESE,113,0.0,1.1,76,0.00,,,0.00,WUHU216HW,2013-10-30 15:43:00,
2013-10-30 09:48:00,23.4,16.3,29.96,NE,45,0.7,1.8,74,0.00,,,0.00,WUHU216HW,2013-10-30 15:48:00,
2013-10-30 09:53:00,22.9,14.9,29.96,NNE,23,1.6,1.8,71,0.00,,,0.00,WUHU216HW,2013-10-30 15:53:00,
2013-10-30 09:58:00,22.5,14.9,29.96,NE,45,0.7,1.8,72,0.00,,,0.00,WUHU216HW,2013-10-30 15:58:00,
2013-10-30 10:03:00,23.0,15.7,29.95,East,90,1.1,1.8,73,0.00,,,0.00,WUHU216HW,2013-10-30 16:03:00,
2013-10-30 10:08:00,24.1,16.7,29.96,SE,135,1.1,1.8,73,0.00,,,0.00,WUHU216HW,2013-10-30 16:08:00,
2013-10-30 10:13:00,25.7,18.5,29.96,SSE,158,0.4,1.8,74,0.00,,,0.00,WUHU216HW,2013-10-30 16:13:00,
2013-10-30 10:18:00,26.3,17.8,29.95,SE,135,0.7,1.6,70,0.00,,,0.00,WUHU216HW,2013-10-30 16:18:00,
2013-10-30 10:23:00,26.3,17.8,29.95,SE,135,0.0,1.1,70,0.00,,,0.00,WUHU216HW,2013-10-30 16:23:00,
2013-10-30 10:28:00,26.3,18.1,29.95,SSW,203,0.7,0.9,71,0.00,,,0.00,WUHU216HW,2013-10-30 16:28:00,
2013-10-30 10:33:00,26.3,18.5,29.95,WSW,248,0.7,1.1,72,0.00,,,0.00,WUHU216HW,2013-10-30 16:33:00,
2013-10-30 10:38:00,26.6,18.8,29.95,SW,225,1.1,1.1,72,0.00,,,0.00,WUHU216HW,2013-10-30 16:38:00,
2013-10-30 10:43:00,27.0,19.2,29.95,SSW,203,1.3,1.3,72,0.00,,,0.00,WUHU216HW,2013-10-30 16:43:00,
2013-10-30 10:48:00,27.2,19.4,29.95,SW,225,0.0,1.3,72,0.00,,,0.00,WUHU216HW,2013-10-30 16:48:00,
2013-10-30 10:53:00,28.1,20.3,29.95,South,180,0.2,2.2,72,0.00,,,0.00,WUHU216HW,2013-10-30 16:53:00,
2013-10-30 10:58:00,28.6,19.8,29.94,ESE,113,0.2,2.2,69,0.00,,,0.00,WUHU216HW,2013-10-30 16:58:00,
2013-10-30 11:03:00,28.6,19.8,29.94,WNW,293,0.9,1.3,69,0.00,,,0.00,WUHU216HW,2013-10-30 17:03:00,
2013-10-30 11:08:00,28.4,19.3,29.94,WSW,248,0.0,1.6,68,0.00,,,0.00,WUHU216HW,2013-10-30 17:08:00,
2013-10-30 11:13:00,28.4,18.9,29.94,WSW,248,1.3,1.6,67,0.00,,,0.00,WUHU216HW,2013-10-30 17:13:00,
2013-10-30 11:18:00,29.7,21.2,29.94,ENE,68,1.1,1.3,70,0.00,,,0.00,WUHU216HW,2013-10-30 17:18:00,
2013-10-30 11:23:00,30.6,20.9,29.94,NNE,23,0.0,1.1,67,0.00,,,0.00,WUHU216HW,2013-10-30 17:23:00,
2013-10-30 11:28:00,30.6,20.5,29.94,North,0,0.0,1.1,66,0.00,,,0.00,WUHU216HW,2013-10-30 17:28:00,
2013-10-30 11:33:00,31.0,20.5,29.94,NNW,338,0.0,0.9,65,0.00,,,0.00,WUHU216HW,2013-10-30 17:33:00,
2013-10-30 11:38:00,31.7,20.9,29.94,ESE,113,0.2,1.1,64,0.00,,,0.00,WUHU216HW,2013-10-30 17:38:00,
2013-10-30 11:43:00,32.2,21.4,29.93,North,0,0.4,1.1,64,0.00,,,0.00,WUHU216HW,2013-10-30 17:43:00,
2013-10-30 11:48:00,31.7,20.2,29.93,North,0,1.8,1.8,62,0.00,,,0.00,WUHU216HW,2013-10-30 17:48:00,
2013-10-30 11:53:00,31.1,19.6,29.93,NNE,23,1.6,1.8,62,0.01,,,0.01,WUHU216HW,2013-10-30 17:53:00,
2013-10-30 11:58:00,31.3,20.2,29.93,North,0,1.3,2.2,63,0.01,,,0.01,WUHU216HW,2013-10-30 17:58:00,
2013-10-30 12:03:00,31.3,19.8,29.93,North,0,1.1,2.2,62,0.01,,,0.01,WUHU216HW,2013-10-30 18:03:00,
2013-10-30 12:08:00,30.1,18.9,29.93,North,0,0.9,2.0,63,0.02,,,0.02,WUHU216HW,2013-10-30 18:08:00,
2013-10-30 12:13:00,29.5,19.5,29.92,NNE,23,2.5,2.5,66,0.02,,,0.02,WUHU216HW,2013-10-30 18:13:00,
2013-10-30 12:18:00,29.9,19.8,29.92,NW,315,1.1,2.5,66,0.03,,,0.02,WUHU216HW,2013-10-30 18:18:00,
2013-10-30 12:23:00,30.6,20.5,29.92,NE,45,1.3,1.3,66,0.03,,,0.03,WUHU216HW,2013-10-30 18:23:00,
2013-10-30 12:28:00,31.1,21.1,29.92,SSE,158,0.4,1.8,66,0.03,,,0.03,WUHU216HW,2013-10-30 18:28:00,
2013-10-30 12:33:00,31.9,21.8,29.92,NW,315,1.8,2.0,66,0.04,,,0.04,WUHU216HW,2013-10-30 18:33:00,
2013-10-30 12:38:00,31.3,21.2,29.91,North,0,1.3,2.0,66,0.04,,,0.04,WUHU216HW,2013-10-30 18:38:00,
2013-10-30 12:43:00,31.7,21.6,29.91,SSW,203,0.7,1.8,66,0.04,,,0.04,WUHU216HW,2013-10-30 18:43:00,
2013-10-30 12:48:00,33.3,23.1,29.91,SSW,203,8.5,8.5,66,0.04,,,0.04,WUHU216HW,2013-10-30 18:48:00,
2013-10-30 12:53:00,34.2,23.2,29.91,South,180,7.6,9.6,64,0.04,,,0.05,WUHU216HW,2013-10-30 18:53:00,
2013-10-30 12:58:00,34.6,23.2,29.91,SSW,203,6.9,9.8,63,0.04,,,0.05,WUHU216HW,2013-10-30 18:58:00,
2013-10-30 13:03:00,34.6,22.9,29.90,South,180,11.0,11.0,62,0.03,,,0.05,WUHU216HW,2013-10-30 19:03:00,
2013-10-30 13:08:00,34.0,23.0,29.90,South,180,9.8,12.8,64,0.03,,,0.05,WUHU216HW,2013-10-30 19:08:00,
2013-10-30 13:13:00,33.5,22.9,29.90,South,180,6.9,12.8,65,0.03,,,0.05,WUHU216HW,2013-10-30 19:13:00,
2013-10-30 13:18:00,32.9,21.7,29.90,SSE,158,9.8,12.8,63,0.02,,,0.05,WUHU216HW,2013-10-30 19:18:00,
2013-10-30 13:23:00,32.8,22.2,29.89,South,180,10.3,11.9,65,0.03,,,0.06,WUHU216HW,2013-10-30 19:23:00,
2013-10-30 13:28:00,32.6,22.4,29.89,South,180,13.6,13.6,66,0.02,,,0.06,WUHU216HW,2013-10-30 19:28:00,
2013-10-30 13:33:00,32.4,22.7,29.89,SSE,158,12.1,13.6,67,0.02,,,0.06,WUHU216HW,2013-10-30 19:33:00,
2013-10-30 13:38:00,32.2,22.5,29.89,SSE,158,9.2,13.6,67,0.02,,,0.06,WUHU216HW,2013-10-30 19:38:00,
2013-10-30 13:44:00,32.4,22.0,29.89,SSE,158,13.4,13.4,65,0.02,,,0.06,WUHU216HW,2013-10-30 19:44:00,
2013-10-30 13:49:00,32.4,22.3,29.88,SSE,158,12.1,13.4,66,0.01,,,0.06,WUHU216HW,2013-10-30 19:49:00,
2013-10-30 13:54:00,32.4,22.3,29.88,SSE,158,12.8,12.8,66,0.01,,,0.06,WUHU216HW,2013-10-30 19:54:00,
2013-10-30 13:59:00,32.4,23.1,29.88,South,180,10.5,12.8,68,0.01,,,0.06,WUHU216HW,2013-10-30 19:59:00,
2013-10-30 14:04:00,32.4,23.8,29.88,South,180,9.8,11.9,70,0.01,,,0.06,WUHU216HW,2013-10-30 20:04:00,
2013-10-30 14:09:00,32.4,23.8,29.88,South,180,9.8,11.9,70,0.01,,,0.06,WUHU216HW,2013-10-30 20:09:00,
2013-10-30 14:14:00,32.6,23.5,29.88,SSW,203,4.0,10.1,69,0.01,,,0.06,WUHU216HW,2013-10-30 20:14:00,
2013-10-30 14:19:00,32.8,24.0,29.88,SSE,158,8.1,9.6,70,0.01,,,0.06,WUHU216HW,2013-10-30 20:19:00,
2013-10-30 14:24:00,32.8,23.3,29.88,SSE,158,6.9,9.8,68,0.00,,,0.06,WUHU216HW,2013-10-30 20:24:00,
2013-10-30 14:29:00,32.8,23.7,29.88,South,180,7.2,9.8,69,0.00,,,0.06,WUHU216HW,2013-10-30 20:29:00,
2013-10-30 14:34:00,32.8,23.7,29.88,South,180,7.6,9.4,69,0.00,,,0.06,WUHU216HW,2013-10-30 20:34:00,
2013-10-30 14:39:00,32.9,23.9,29.88,South,180,8.1,10.1,69,0.00,,,0.06,WUHU216HW,2013-10-30 20:39:00,
2013-10-30 14:44:00,32.9,23.1,29.88,SE,135,13.6,13.6,67,0.00,,,0.06,WUHU216HW,2013-10-30 20:44:00,
2013-10-30 14:49:00,32.8,24.0,29.88,SSE,158,8.5,13.6,70,0.00,,,0.06,WUHU216HW,2013-10-30 20:49:00,
2013-10-30 14:54:00,32.8,23.7,29.88,SSE,158,8.7,11.6,69,0.00,,,0.06,WUHU216HW,2013-10-30 20:54:00,
2013-10-30 14:59:00,33.5,24.3,29.88,South,180,9.6,11.6,69,0.00,,,0.06,WUHU216HW,2013-10-30 20:59:00,
2013-10-30 15:04:00,33.8,25.0,29.88,South,180,6.5,11.4,70,0.00,,,0.06,WUHU216HW,2013-10-30 21:04:00,
2013-10-30 15:09:00,34.4,24.8,29.88,SSE,158,6.9,10.5,68,0.00,,,0.06,WUHU216HW,2013-10-30 21:09:00,
2013-10-30 15:14:00,34.9,25.0,29.88,SSW,203,7.2,10.3,67,0.00,,,0.06,WUHU216HW,2013-10-30 21:14:00,
2013-10-30 15:19:00,35.3,25.4,29.88,SSE,158,5.4,7.4,67,0.00,,,0.06,WUHU216HW,2013-10-30 21:19:00,
2013-10-30 15:24:00,35.1,24.5,29.88,SSE,158,5.4,7.2,65,0.00,,,0.06,WUHU216HW,2013-10-30 21:24:00,
2013-10-30 15:29:00,34.6,23.6,29.88,SSW,203,5.1,7.2,64,0.00,,,0.06,WUHU216HW,2013-10-30 21:29:00,
2013-10-30 15:34:00,34.4,23.8,29.88,SSE,158,9.8,9.8,65,0.00,,,0.06,WUHU216HW,2013-10-30 21:34:00,
2013-10-30 15:39:00,34.7,24.1,29.87,SSW,203,6.5,9.8,65,0.00,,,0.06,WUHU216HW,2013-10-30 21:39:00,
2013-10-30 15:44:00,34.6,23.2,29.87,SSE,158,8.3,9.4,63,0.00,,,0.06,WUHU216HW,2013-10-30 21:44:00,
2013-10-30 15:49:00,34.0,23.0,29.88,South,180,9.4,9.8,64,0.00,,,0.06,WUHU216HW,2013-10-30 21:49:00,
2013-10-30 15:54:00,33.5,22.9,29.88,SSE,158,9.8,9.8,65,0.00,,,0.06,WUHU216HW,2013-10-30 21:54:00,
2013-10-30 15:59:00,33.1,23.0,29.88,South,180,10.3,10.3,66,0.00,,,0.06,WUHU216HW,2013-10-30 21:59:00,
2013-10-30 16:04:00,32.8,23.0,29.88,South,180,10.1,10.5,67,0.00,,,0.06,WUHU216HW,2013-10-30 22:04:00,
2013-10-30 16:09:00,32.0,23.0,29.88,SSW,203,13.0,15.2,69,0.00,,,0.06,WUHU216HW,2013-10-30 22:09:00,
2013-10-30 16:14:00,31.5,22.9,29.88,South,180,10.5,15.2,70,0.00,,,0.06,WUHU216HW,2013-10-30 22:14:00,
2013-10-30 16:19:00,31.1,22.9,29.88,SE,135,8.5,12.1,71,0.00,,,0.06,WUHU216HW,2013-10-30 22:19:00,
2013-10-30 16:24:00,31.0,22.7,29.88,SSE,158,4.5,12.1,71,0.00,,,0.06,WUHU216HW,2013-10-30 22:24:00,
2013-10-30 16:29:00,31.0,22.3,29.88,SSE,158,6.0,8.3,70,0.00,,,0.06,WUHU216HW,2013-10-30 22:29:00,
2013-10-30 16:34:00,31.1,22.9,29.88,South,180,5.4,8.3,71,0.00,,,0.06,WUHU216HW,2013-10-30 22:34:00,
2013-10-30 16:39:00,31.0,22.3,29.88,SSW,203,4.9,6.7,70,0.00,,,0.06,WUHU216HW,2013-10-30 22:39:00,
2013-10-30 16:44:00,31.0,22.0,29.88,South,180,4.5,7.8,69,0.00,,,0.06,WUHU216HW,2013-10-30 22:44:00,
2013-10-30 16:49:00,31.0,22.0,29.88,South,180,2.9,7.8,69,0.00,,,0.06,WUHU216HW,2013-10-30 22:49:00,
2013-10-30 16:54:00,31.1,22.1,29.88,WSW,248,3.4,5.6,69,0.00,,,0.06,WUHU216HW,2013-10-30 22:54:00,
2013-10-30 16:59:00,31.1,22.5,29.88,WSW,248,0.7,3.4,70,0.00,,,0.06,WUHU216HW,2013-10-30 22:59:00,
2013-10-30 17:04:00,31.3,23.1,29.88,SE,135,1.1,3.1,71,0.00,,,0.06,WUHU216HW,2013-10-30 23:04:00,
2013-10-30 17:09:00,31.3,23.1,29.88,SSW,203,4.5,6.0,71,0.00,,,0.06,WUHU216HW,2013-10-30 23:09:00,
2013-10-30 17:14:00,31.1,23.1,29.88,SSW,203,2.7,6.0,72,0.00,,,0.06,WUHU216HW,2013-10-30 23:14:00,
2013-10-30 17:19:00,31.1,23.1,29.88,SSW,203,0.7,3.4,72,0.00,,,0.06,WUHU216HW,2013-10-30 23:19:00,
2013-10-30 17:24:00,31.3,23.3,29.88,WNW,293,0.4,1.6,72,0.00,,,0.06,WUHU216HW,2013-10-30 23:24:00,
2013-10-30 17:29:00,30.4,22.4,29.88,NNW,338,0.2,1.1,72,0.00,,,0.06,WUHU216HW,2013-10-30 23:29:00,
2013-10-30 17:34:00,29.9,22.2,29.88,NNE,23,0.0,1.1,73,0.00,,,0.06,WUHU216HW,2013-10-30 23:34:00,
2013-10-30 17:39:00,29.9,22.2,29.88,ESE,113,0.4,0.9,73,0.00,,,0.06,WUHU216HW,2013-10-30 23:39:00,
2013-10-30 17:44:00,29.9,22.2,29.88,ESE,113,0.0,0.9,73,0.00,,,0.06,WUHU216HW,2013-10-30 23:44:00,
2013-10-30 17:49:00,29.9,22.2,29.88,ESE,113,0.0,0.4,73,0.00,,,0.06,WUHU216HW,2013-10-30 23:49:00,
2013-10-30 17:54:00,29.7,22.1,29.88,ESE,113,0.4,0.4,73,0.00,,,0.06,WUHU216HW,2013-10-30 23:54:00,
2013-10-30 17:59:00,29.5,22.2,29.88,ESE,113,0.4,0.4,74,0.00,,,0.06,WUHU216HW,2013-10-30 23:59:00,
2013-10-30 18:04:00,28.6,21.7,29.88,East,90,0.4,0.4,75,0.00,,,0.06,WUHU216HW,2013-10-31 00:04:00,
2013-10-30 18:09:00,28.4,21.5,29.88,ENE,68,0.0,0.4,75,0.00,,,0.06,WUHU216HW,2013-10-31 00:09:00,
2013-10-30 18:14:00,28.3,21.3,29.88,NNW,338,0.4,0.4,75,0.00,,,0.06,WUHU216HW,2013-10-31 00:14:00,
2013-10-30 18:19:00,27.9,21.0,29.88,NNW,338,0.0,0.9,75,0.00,,,0.06,WUHU216HW,2013-10-31 00:19:00,
2013-10-30 18:24:00,27.9,21.0,29.88,NNW,338,0.0,0.7,75,0.00,,,0.06,WUHU216HW,2013-10-31 00:24:00,
2013-10-30 18:29:00,27.9,21.6,29.88,NE,45,1.8,1.8,77,0.00,,,0.06,WUHU216HW,2013-10-31 00:29:00,
2013-10-30 18:34:00,27.5,21.3,29.88,NNE,23,2.9,2.9,77,0.00,,,0.06,WUHU216HW,2013-10-31 00:34:00,
2013-10-30 18:39:00,27.0,21.3,29.88,NNE,23,3.6,3.6,79,0.00,,,0.06,WUHU216HW,2013-10-31 00:39:00,
2013-10-30 18:44:00,26.8,21.4,29.88,NNE,23,4.3,4.3,80,0.00,,,0.06,WUHU216HW,2013-10-31 00:44:00,
2013-10-30 18:49:00,26.5,21.7,29.88,NNE,23,1.3,5.4,82,0.00,,,0.06,WUHU216HW,2013-10-31 00:49:00,
2013-10-30 18:54:00,26.5,21.1,29.89,NNE,23,0.4,5.4,80,0.00,,,0.06,WUHU216HW,2013-10-31 00:54:00,
2013-10-30 18:59:00,26.3,20.9,29.89,NE,45,1.6,1.8,80,0.00,,,0.06,WUHU216HW,2013-10-31 00:59:00,
2013-10-30 19:04:00,26.3,20.9,29.89,ESE,113,0.9,1.8,80,0.00,,,0.06,WUHU216HW,2013-10-31 01:04:00,
2013-10-30 19:09:00,26.3,20.6,29.89,SW,225,0.0,1.8,79,0.00,,,0.06,WUHU216HW,2013-10-31 01:09:00,
2013-10-30 19:14:00,26.3,20.6,29.89,WSW,248,1.1,2.0,79,0.00,,,0.06,WUHU216HW,2013-10-31 01:14:00,
2013-10-30 19:19:00,26.3,20.6,29.89,SSE,158,2.5,2.5,79,0.00,,,0.06,WUHU216HW,2013-10-31 01:19:00,
2013-10-30 19:24:00,25.9,20.3,29.89,ESE,113,0.4,2.5,79,0.00,,,0.06,WUHU216HW,2013-10-31 01:24:00,
2013-10-30 19:29:00,25.7,20.1,29.89,SE,135,0.7,2.5,79,0.00,,,0.06,WUHU216HW,2013-10-31 01:29:00,
2013-10-30 19:34:00,25.7,20.1,29.89,East,90,1.3,1.3,79,0.00,,,0.06,WUHU216HW,2013-10-31 01:34:00,
2013-10-30 19:39:00,25.6,20.0,29.89,ESE,113,1.1,1.8,79,0.00,,,0.06,WUHU216HW,2013-10-31 01:39:00,
2013-10-30 19:44:00,25.6,20.0,29.89,SE,135,0.0,1.8,79,0.00,,,0.06,WUHU216HW,2013-10-31 01:44:00,
2013-10-30 19:49:00,25.2,19.3,29.89,ESE,113,1.1,1.1,78,0.00,,,0.06,WUHU216HW,2013-10-31 01:49:00,
2013-10-30 19:54:00,24.8,19.0,29.90,East,90,0.7,1.6,78,0.00,,,0.06,WUHU216HW,2013-10-31 01:54:00,
2013-10-30 19:59:00,24.5,19.5,29.89,East,90,1.6,2.5,81,0.00,,,0.06,WUHU216HW,2013-10-31 01:59:00,
2013-10-30 20:04:00,24.3,18.7,29.89,SE,135,0.0,2.5,79,0.00,,,0.06,WUHU216HW,2013-10-31 02:04:00,
2013-10-30 20:09:00,23.9,18.1,29.89,WSW,248,0.4,1.6,78,0.00,,,0.06,WUHU216HW,2013-10-31 02:09:00,
2013-10-30 20:14:00,23.8,17.7,29.89,SSE,158,0.4,0.7,77,0.00,,,0.06,WUHU216HW,2013-10-31 02:14:00,
2013-10-30 20:19:00,23.4,17.3,29.89,SSE,158,0.9,1.3,77,0.00,,,0.06,WUHU216HW,2013-10-31 02:19:00,
2013-10-30 20:24:00,23.0,17.2,29.89,ESE,113,1.1,1.6,78,0.00,,,0.06,WUHU216HW,2013-10-31 02:24:00,
2013-10-30 20:30:00,22.9,17.0,29.89,SSE,158,2.5,2.5,78,0.00,,,0.06,WUHU216HW,2013-10-31 02:30:00,
2013-10-30 20:35:00,22.7,16.8,29.89,SSW,203,0.7,2.5,78,0.00,,,0.06,WUHU216HW,2013-10-31 02:35:00,
2013-10-30 20:40:00,22.7,16.8,29.89,South,180,1.1,2.5,78,0.00,,,0.06,WUHU216HW,2013-10-31 02:40:00,
2013-10-30 20:45:00,22.7,16.8,29.89,SW,225,2.2,2.7,78,0.00,,,0.06,WUHU216HW,2013-10-31 02:45:00,
2013-10-30 20:50:00,23.0,18.1,29.90,SSE,158,7.6,8.5,81,0.00,,,0.06,WUHU216HW,2013-10-31 02:50:00,
2013-10-30 20:55:00,23.6,18.9,29.89,SW,225,3.4,8.5,82,0.00,,,0.06,WUHU216HW,2013-10-31 02:55:00,
2013-10-30 21:00:00,23.8,18.8,29.89,SSW,203,2.5,6.3,81,0.00,,,0.06,WUHU216HW,2013-10-31 03:00:00,
2013-10-30 21:05:00,23.9,18.4,29.89,South,180,2.5,4.3,79,0.00,,,0.06,WUHU216HW,2013-10-31 03:05:00,
2013-10-30 21:10:00,24.3,18.1,29.90,SSE,158,2.5,4.3,77,0.00,,,0.06,WUHU216HW,2013-10-31 03:10:00,
2013-10-30 21:15:00,24.1,16.4,29.90,East,90,3.8,4.5,72,0.00,,,0.06,WUHU216HW,2013-10-31 03:15:00,
2013-10-30 21:20:00,24.3,15.9,29.90,East,90,2.5,4.5,70,0.00,,,0.06,WUHU216HW,2013-10-31 03:20:00,
2013-10-30 21:25:00,23.8,16.0,29.90,NE,45,1.1,3.4,72,0.00,,,0.06,WUHU216HW,2013-10-31 03:25:00,
2013-10-30 21:30:00,22.7,16.8,29.90,East,90,1.1,3.8,78,0.00,,,0.06,WUHU216HW,2013-10-31 03:30:00,
2013-10-30 21:35:00,22.3,15.8,29.90,North,0,0.0,3.8,76,0.00,,,0.06,WUHU216HW,2013-10-31 03:35:00,
2013-10-30 21:40:00,22.3,15.8,29.90,SE,135,0.9,3.6,76,0.00,,,0.06,WUHU216HW,2013-10-31 03:40:00,
2013-10-30 21:45:00,22.1,15.4,29.90,East,90,0.9,3.4,75,0.00,,,0.06,WUHU216HW,2013-10-31 03:45:00,
2013-10-30 21:50:00,22.0,15.5,29.91,SE,135,0.4,3.4,76,0.00,,,0.06,WUHU216HW,2013-10-31 03:50:00,
2013-10-30 21:55:00,21.8,15.3,29.91,SE,135,0.0,1.3,76,0.00,,,0.06,WUHU216HW,2013-10-31 03:55:00,
2013-10-30 22:00:00,21.6,15.5,29.91,East,90,1.3,1.3,77,0.00,,,0.06,WUHU216HW,2013-10-31 04:00:00,
2013-10-30 22:05:00,21.6,15.5,29.91,ENE,68,1.8,2.2,77,0.00,,,0.06,WUHU216HW,2013-10-31 04:05:00,
2013-10-30 22:10:00,21.8,15.7,29.91,West,270,2.5,2.9,77,0.00,,,0.06,WUHU216HW,2013-10-31 04:10:00,
2013-10-30 22:15:00,21.4,14.9,29.91,West,270,1.6,2.9,76,0.00,,,0.06,WUHU216HW,2013-10-31 04:15:00,
2013-10-30 22:20:00,21.1,15.0,29.91,East,90,1.8,2.5,77,0.00,,,0.06,WUHU216HW,2013-10-31 04:20:00,
2013-10-30 22:25:00,21.1,15.2,29.91,ESE,113,1.8,2.5,78,0.00,,,0.06,WUHU216HW,2013-10-31 04:25:00,
2013-10-30 22:30:00,20.9,14.8,29.91,ESE,113,0.2,1.8,77,0.00,,,0.06,WUHU216HW,2013-10-31 04:30:00,
2013-10-30 22:35:00,20.9,14.8,29.91,SSW,203,0.0,1.8,77,0.00,,,0.06,WUHU216HW,2013-10-31 04:35:00,
2013-10-30 22:40:00,20.7,14.6,29.91,WSW,248,0.0,1.8,77,0.00,,,0.06,WUHU216HW,2013-10-31 04:40:00,
2013-10-30 22:45:00,20.5,14.4,29.91,East,90,1.8,2.5,77,0.00,,,0.06,WUHU216HW,2013-10-31 04:45:00,
2013-10-30 22:50:00,20.5,14.7,29.91,WNW,293,0.9,2.5,78,0.00,,,0.06,WUHU216HW,2013-10-31 04:50:00,
2013-10-30 22:55:00,20.3,14.5,29.91,South,180,0.7,0.9,78,0.00,,,0.06,WUHU216HW,2013-10-31 04:55:00,
2013-10-30 23:00:00,20.0,13.9,29.91,NNE,23,0.7,1.8,77,0.00,,,0.06,WUHU216HW,2013-10-31 05:00:00,
2013-10-30 23:05:00,19.6,13.5,29.92,WSW,248,2.7,3.4,77,0.00,,,0.06,WUHU216HW,2013-10-31 05:05:00,
2013-10-30 23:10:00,19.3,13.2,29.92,ESE,113,1.6,3.4,77,0.00,,,0.06,WUHU216HW,2013-10-31 05:10:00,
2013-10-30 23:15:00,19.1,13.0,29.92,WSW,248,4.9,4.9,77,0.00,,,0.06,WUHU216HW,2013-10-31 05:15:00,
2013-10-30 23:20:00,18.9,12.8,29.92,East,90,1.6,4.9,77,0.00,,,0.06,WUHU216HW,2013-10-31 05:20:00,
2013-10-30 23:25:00,18.7,12.9,29.92,SSE,158,0.0,3.1,78,0.00,,,0.06,WUHU216HW,2013-10-31 05:25:00,
2013-10-30 23:30:00,18.5,12.7,29.92,SSE,158,0.2,2.9,78,0.00,,,0.06,WUHU216HW,2013-10-31 05:30:00,
2013-10-30 23:35:00,18.4,12.2,29.93,SSW,203,1.8,4.7,77,0.00,,,0.06,WUHU216HW,2013-10-31 05:35:00,
2013-10-30 23:40:00,18.4,12.5,29.93,SSE,158,0.4,4.7,78,0.00,,,0.06,WUHU216HW,2013-10-31 05:40:00,
2013-10-30 23:45:00,18.2,12.3,29.93,WNW,293,2.0,2.0,78,0.00,,,0.06,WUHU216HW,2013-10-31 05:45:00,
2013-10-30 23:50:00,18.0,12.3,29.93,SSE,158,0.4,2.9,78,0.00,,,0.06,WUHU216HW,2013-10-31 05:50:00,
2013-10-30 23:55:00,18.2,12.3,29.93,SE,135,0.7,2.9,78,0.00,,,0.06,WUHU216HW,2013-10-31 05:55:00,